Weather History for Hurlburt Field, FL

Change the Weather History Date:

Friday, November 8, 2013

  Actual Average Record
Temperature  
Mean Temperature 55 °F -  
Max Temperature 66 °F 71 °F 80 °F (2000)
Min Temperature 44 °F 51 °F 35 °F (2007)
Degree Days  
Heating Degree Days 10    
Growing Degree Days 5 (Base 50)    
Moisture  
Dew Point 34 °F    
Average Humidity 49    
Maximum Humidity 77    
Minimum Humidity 28    
Precipitation  
Precipitation 0.00 in - - ()
Sea Level Pressure  
Sea Level Pressure 30.22 in    
Wind  
Wind Speed 12 mph (NNE)    
Max Wind Speed 16 mph    
Max Gust Speed 24 mph    
Visibility 10 miles    
Events Rain    
Averages and records for this station are not official NWS values.
T = Trace of Precipitation, MM = Missing Value Source: NWS Daily Summary

Daily Weather History Graph

Daily Weather History Graph

Search for Another Location

Airport:

Trip Planner

Search our weather history database for the weather conditions in past years. The results will help you decide how hot, cold, wet, or windy it might be!

Date:

Astronomy

Nov. 08, 2013 Rise Set
Actual Time 6:06 AM CST 4:53 PM CST
Civil Twilight 5:41 AM CST 5:18 PM CST
Nautical Twilight 5:13 AM CST 5:47 PM CST
Astronomical Twilight 4:44 AM CST 6:15 PM CST
Moon 11:02 AM CST (11/8) 10:12 PM CST (11/8)
Length of Visible Light 11h 36m
Length of Day
10h 46m
Waxing Crescent, 33% of the Moon is Illuminated
Nov 8
Waxing Crescent
Nov 9
First Quarter
Nov 17
Full
Nov 25
Last Quarter
Dec 2
New

Hourly Weather History & Observations

Time (CST) Temp. Windchill Dew Point Humidity Pressure Visibility Wind Dir Wind Speed Gust Speed Precip Events Conditions
12:58 AM 49.3 °F - 34.7 °F 57% 30.20 in 10.0 mi North 15.0 mph - N/A   Clear
1:58 AM 47.8 °F - 34.0 °F 59% 30.20 in 10.0 mi North 13.8 mph - N/A   Clear
2:58 AM 46.8 °F - 33.1 °F 59% 30.20 in 10.0 mi NNE 13.8 mph - N/A   Clear
3:58 AM 45.3 °F 39.7 °F 32.9 °F 62% 30.21 in 10.0 mi North 11.5 mph - N/A   Clear
4:58 AM 44.6 °F 38.1 °F 32.4 °F 62% 30.23 in 10.0 mi NNE 13.8 mph - N/A   Clear
5:58 AM 44.6 °F 38.4 °F 31.8 °F 61% 30.25 in 10.0 mi NNE 12.7 mph - N/A   Clear
6:58 AM 46.0 °F 39.9 °F 31.1 °F 56% 30.26 in 10.0 mi NNE 13.8 mph - N/A   Clear
7:58 AM 50.4 °F - 29.7 °F 45% 30.27 in 10.0 mi NNE 13.8 mph 24.2 mph N/A   Clear
8:58 AM 54.1 °F - 30.6 °F 41% 30.28 in 10.0 mi NNE 16.1 mph 20.7 mph N/A   Clear
9:58 AM 58.5 °F - 30.9 °F 35% 30.27 in 10.0 mi NE 15.0 mph 19.6 mph N/A   Clear
10:04 AM 59.0 °F - 30.2 °F 34% 30.26 in 10.0 mi ENE 12.7 mph - N/A   Clear
10:40 AM 60.8 °F - 32.0 °F 34% 30.24 in 10.0 mi NNE 12.7 mph 19.6 mph N/A   Clear
10:58 AM 60.8 °F - 32.0 °F 34% 30.25 in 10.0 mi ENE 8.1 mph - N/A   Clear
11:58 AM 63.5 °F - 33.8 °F 33% 30.22 in 10.0 mi NE 11.5 mph - N/A   Clear
12:58 PM 65.1 °F - 33.4 °F 31% 30.19 in 10.0 mi NE 12.7 mph - N/A   Clear
1:58 PM 66.0 °F - 32.2 °F 28% 30.17 in 10.0 mi NNE 11.5 mph - N/A   Clear
2:58 PM 64.8 °F - 32.9 °F 30% 30.17 in 10.0 mi NE 12.7 mph 21.9 mph N/A   Clear
3:22 PM 64.4 °F - 32.0 °F 30% 30.16 in 10.0 mi NNE 9.2 mph - N/A Rain Light Rain
3:31 PM 62.6 °F - 33.8 °F 34% 30.16 in 10.0 mi NNE 10.4 mph - N/A   Clear
3:58 PM 62.4 °F - 34.3 °F 35% 30.18 in 10.0 mi NNE 10.4 mph - 0.00 in   Clear
4:58 PM 58.5 °F - 36.5 °F 44% 30.18 in 10.0 mi NNE 6.9 mph - N/A   Clear
5:58 PM 52.3 °F - 39.6 °F 62% 30.20 in 10.0 mi North 4.6 mph - N/A   Clear
6:58 PM 47.7 °F - 40.8 °F 77% 30.21 in 10.0 mi North 5.8 mph - N/A   Clear
7:58 PM 47.1 °F - 39.0 °F 73% 30.22 in 10.0 mi North 6.9 mph - N/A   Clear
8:58 PM 46.2 °F 44.1 °F 38.7 °F 75% 30.23 in 10.0 mi NNE 4.6 mph - N/A   Clear
9:58 PM 50.2 °F - 37.2 °F 61% 30.23 in 10.0 mi ENE 5.8 mph - N/A   Clear
10:58 PM 48.6 °F - 37.4 °F 65% 30.22 in 10.0 mi NE 6.9 mph - N/A   Clear
11:58 PM 48.0 °F - 36.9 °F 65% 30.21 in 10.0 mi ENE 6.9 mph - N/A   Clear